[[[{"header":{"parameterUnit":"kt","parameterCategory":2,"dx":1,"dy":1,"la1":30.253999710083008,"la2":30.299108505249023,"lo1":-89.0895004272461,"lo2":-89.04439544677734,"nx":28,"ny":28,"refTime":"2022-10-31T21:00:00:Z","depth":"0","parameterNumber":2,"parameterNumberName":"U-component_of_CURRENTS"},"data":[-0.2108,-0.2111,-0.204,-0.1934,-0.1871,-0.169,-0.1607,-0.1492,-0.1467,-0.1389,-0.1412,-0.1537,-0.1275,-0.1109,-0.0645,-0.063,-0.0694,-0.0905,-0.1127,-0.0973,-0.1049,-0.1122,-0.0927,-0.0419,-0.042,-0.0655,-0.0658,-0.066,-0.2007,-0.1945,-0.2001,-0.2,-0.1937,-0.1945,-0.1911,-0.1827,-0.179,-0.186,-0.1886,-0.1902,-0.1721,-0.1689,-0.1466,-0.1375,-0.1404,-0.1398,-0.1413,-0.1416,-0.1545,-0.1343,-0.0914,-0.0914,-0.0914,-0.0915,-0.0915,-0.0915,-0.179,-0.1843,-0.1889,-0.1962,-0.1991,-0.1949,-0.194,-0.2004,-0.2061,-0.2114,-0.2269,-0.2297,-0.233,-0.2588,-0.2571,-0.2266,-0.2763,-0.2113,-0.2346,-0.2559,-0.2363,-0.2593,-0.2498,-0.2502,-0.2506,-0.251,-0.2513,0,-0.1617,-0.1619,-0.1763,-0.1829,-0.1913,-0.1998,-0.2104,-0.2142,-0.2314,-0.2404,-0.2501,-0.2582,-0.2806,-0.2812,-0.307,-0.3104,-0.3061,-0.3139,-0.2903,-0.2372,-0.2486,-0.2377,-0.2688,-0.2703,-0.2709,-0.2714,-0.2717,-0.2719,-0.1371,-0.1479,-0.1671,-0.174,-0.1856,-0.2025,-0.211,-0.229,-0.2379,-0.2605,-0.2657,-0.2864,-0.2979,-0.3212,-0.332,-0.3508,-0.352,-0.3276,-0.3119,-0.2835,-0.2952,-0.311,-0.3043,-0.2784,-0.2776,-0.2769,-0.2764,0,-0.1241,-0.1344,-0.1586,-0.1822,-0.1877,-0.2033,-0.2231,-0.2343,-0.2513,-0.2675,-0.2729,-0.2967,-0.3112,-0.3326,-0.3479,-0.3503,-0.3513,-0.3651,-0.3288,-0.3195,-0.2842,-0.2978,-0.321,-0.3138,-0.3645,-0.3644,-0.3642,0,-0.1142,-0.1324,-0.1503,-0.1641,-0.1847,-0.2054,-0.2254,-0.2436,-0.2628,-0.2764,-0.2965,-0.3066,-0.3215,-0.3346,-0.3429,-0.3499,-0.3569,-0.3501,-0.3455,-0.3124,-0.3083,-0.283,-0.2939,-0.3609,-0.3608,-0.3606,-0.3605,0,-0.1013,-0.132,-0.1513,-0.1636,-0.1968,-0.2081,-0.2237,-0.251,-0.2636,-0.2871,-0.2939,-0.3166,-0.3212,-0.3312,-0.3391,-0.3317,-0.3509,-0.3403,-0.3405,-0.3397,-0.3099,-0.3055,-0.2913,-0.3603,-0.3602,-0.3602,-0.3601,0,-0.1018,-0.1176,-0.1439,-0.1737,-0.1825,-0.1994,-0.2298,-0.2476,-0.273,-0.2818,-0.2996,-0.3073,-0.3242,-0.3179,-0.334,-0.3223,-0.327,-0.3271,-0.3275,-0.3152,-0.3002,-0.2817,-0.2906,-0.2623,-0.3267,-0.3264,-0.3261,0,-0.0888,-0.1147,-0.1292,-0.1582,-0.1767,-0.1956,-0.2141,-0.2371,-0.2522,-0.2697,-0.2829,-0.2974,-0.2996,-0.3016,-0.3088,-0.3078,-0.3182,-0.3076,-0.3077,-0.3081,-0.2949,-0.3102,-0.2735,-0.2876,-0.3223,-0.3227,-0.323,0,-0.0813,-0.1096,-0.1138,-0.1276,-0.1586,-0.1743,-0.1949,-0.2218,-0.2339,-0.2513,-0.2677,-0.2873,-0.2898,-0.2956,-0.2967,-0.2999,-0.3121,-0.2873,-0.2872,-0.2946,-0.3188,-0.3064,-0.3078,-0.2987,-0.2991,-0.2994,-0.3199,0,-0.0866,-0.1021,-0.1086,-0.1338,-0.1496,-0.1663,-0.1887,-0.2014,-0.2107,-0.226,-0.2442,-0.2543,-0.2683,-0.2696,-0.2705,-0.2845,-0.2784,-0.2701,-0.262,-0.2732,-0.2805,-0.283,-0.2514,-0.2512,-0.251,-0.2508,0,0,-0.0767,-0.0942,-0.1061,-0.1215,-0.136,-0.1511,-0.1682,-0.1822,-0.2058,-0.2141,-0.2106,-0.2355,-0.2397,-0.2576,-0.2628,-0.2617,-0.2596,-0.2541,-0.2668,-0.2686,-0.2702,-0.2778,-0.2803,-0.2506,-0.2505,-0.2504,-0.2504,0,-0.0812,-0.0916,-0.1004,-0.1164,-0.1374,-0.1527,-0.1563,-0.1807,-0.1894,-0.2062,-0.2112,-0.2215,-0.2293,-0.2401,-0.2444,-0.2576,-0.2502,-0.2526,-0.2617,-0.2651,-0.2671,-0.2689,-0.2767,-0.2791,-0.25,-0.25,-0.25,0,-0.081,-0.0947,-0.0999,-0.1245,-0.1376,-0.1558,-0.16,-0.1752,-0.1898,-0.1902,-0.2063,-0.2108,-0.2164,-0.2271,-0.2301,-0.2248,-0.2406,-0.2329,-0.2339,-0.2392,-0.2426,-0.2449,-0.247,-0.2204,-0.2203,-0.2202,0,0,-0.0842,-0.0932,-0.1175,-0.1274,-0.1354,-0.1549,-0.1644,-0.1746,-0.188,-0.1928,-0.1992,-0.2045,-0.2128,-0.2136,-0.2213,-0.2268,-0.2289,-0.2294,-0.2308,-0.232,-0.2378,-0.2416,-0.2438,-0.2199,-0.2199,-0.2199,0,0,-0.0863,-0.1096,-0.1149,-0.1286,-0.1462,-0.1703,-0.1761,-0.1848,-0.1956,-0.1936,-0.1982,-0.1992,-0.2081,-0.2067,-0.2026,-0.2161,-0.2102,-0.2111,-0.2165,-0.2182,-0.2196,-0.2257,-0.1983,0,0,0,0,0,-0.1003,-0.1069,-0.1114,-0.1162,-0.1462,-0.1681,-0.1725,-0.1853,-0.1847,-0.1907,-0.1967,-0.1925,-0.2074,-0.2039,-0.2047,-0.2084,-0.2157,-0.2164,-0.2171,-0.2258,-0.2276,-0.2292,0,0,0,0,0,0,-0.1024,-0.1082,-0.1113,-0.135,-0.142,-0.1679,-0.1704,-0.1742,-0.1844,-0.1851,-0.1927,-0.1928,-0.1958,-0.2032,-0.204,-0.2076,-0.1981,-0.2159,-0.2166,-0.2172,-0.2264,-0.2279,-0.2292,0,0,0,0,0,-0.1041,-0.1088,-0.1523,-0.1351,-0.1411,-0.1608,-0.17,-0.1732,-0.1811,-0.1887,-0.1897,-0.1896,-0.196,-0.1965,-0.2036,-0.2073,-0.1975,-0.1978,-0.2164,-0.2169,-0.2173,-0.2271,0,0,0,0,0,0,-0.1054,-0.1128,-0.1539,-0.1564,-0.1314,-0.1597,-0.1641,-0.1723,-0.1839,-0.1857,-0.1854,-0.1857,-0.1962,-0.1965,-0.197,-0.2073,-0.197,-0.1974,-0.1976,-0.2167,-0.2171,-0.2175,0,0,0,0,0,0,-0.1104,-0.1147,-0.1552,-0.1497,-0.1517,-0.1585,-0.1624,-0.1663,-0.183,-0.1796,-0.1807,-0.1852,-0.1877,-0.1966,-0.1969,-0.2033,-0.1967,-0.197,-0.1972,-0.1973,-0.2171,-0.2174,0,0,0,0,0,0,-0.1126,-0.1163,-0.1491,-0.1506,-0.1524,-0.1813,-0.1613,-0.1863,-0.1938,-0.1783,-0.1931,-0.1928,-0.1871,-0.1881,-0.1969,-0.2032,-0.2033,-0.1967,-0.1969,-0.1971,-0.1971,0,0,0,0,0,0,0,-0.1143,-0.0849,-0.1391,-0.1514,-0.1529,-0.1794,-0.1801,-0.1808,-0.1937,-0.1935,-0.1932,-0.193,-0.195,-0.1953,-0.1957,-0.2031,0,0,-0.1967,-0.1968,0,0,0,0,0,0,0,0,-0.0837,-0.0846,-0.1392,-0.1397,-0.1402,-0.1795,-0.1801,-0.1806,-0.1937,-0.1935,-0.1933,-0.1931,-0.1951,-0.1954,-0.1956,0,0,0,0,0,0,0,0,0,0,0,0,0,0,0,-0.1392,-0.1396,0,-0.1796,-0.18,-0.1805,-0.1937,-0.1935,-0.1933,-0.1931,-0.1952,-0.1954,-0.1956,0,0,0,0,0,0,0,0,0,0,0,0,0,0,0,0,0,0,0,0,0,0,0,0,0,0,0,0,0,0,0,0,0,0,0,0,0,0,0,0,0,0,0,0,0,0,0,0,0,0,0,0,0,0,0,0,0,0,0,0,0,0,0,0,0,0,0,0,0]}],[{"header":{"parameterUnit":"kt","parameterCategory":2,"dx":1,"dy":1,"la1":30.253999710083008,"la2":30.299108505249023,"lo1":-89.0895004272461,"lo2":-89.04439544677734,"nx":28,"ny":28,"refTime":"2022-10-31T21:00:00:Z","depth":"0","parameterNumber":3,"parameterNumberName":"V-component_of_CURRENTS"},"data":[-0.2709,-0.2823,-0.2964,-0.3209,-0.3347,-0.3562,-0.3704,-0.3955,-0.4197,-0.4461,-0.4559,-0.4638,-0.2874,-0.0289,0.1897,0.2202,0.2686,0.2563,0.2735,0.2192,0.2058,0.193,0.2228,0.3214,0.3216,0.3864,0.3872,0.3878,-0.2795,-0.2907,-0.3045,-0.3215,-0.3374,-0.3467,-0.3711,-0.386,-0.4101,-0.4362,-0.4566,-0.4307,-0.3327,-0.2335,-0.0443,0.0521,0.0661,0.1021,0.1114,0.1202,0.0107,0.0355,0.096,0.096,0.0959,0.0958,0.0958,0.0957,-0.2928,-0.2969,-0.3083,-0.322,-0.3343,-0.3524,-0.3629,-0.3812,-0.3991,-0.4216,-0.4319,-0.4506,-0.3845,-0.3149,-0.2592,-0.1075,-0.1443,-0.0527,-0.0445,-0.0562,-0.0143,-0.1417,-0.1208,-0.1211,-0.1214,-0.1216,-0.1219,0,-0.3021,-0.3076,-0.3113,-0.3258,-0.3343,-0.3449,-0.3571,-0.3677,-0.3783,-0.3902,-0.4092,-0.4184,-0.3952,-0.3583,-0.3068,-0.2683,-0.1778,-0.2099,-0.1486,-0.0698,-0.068,-0.0417,-0.1821,-0.1762,-0.1768,-0.1773,-0.1777,-0.1779,-0.3101,-0.3126,-0.322,-0.3267,-0.3284,-0.3359,-0.3429,-0.349,-0.3582,-0.3715,-0.3791,-0.3829,-0.3908,-0.3638,-0.3146,-0.2864,-0.2475,-0.2272,-0.2015,-0.1392,-0.119,-0.1219,-0.1029,-0.1849,-0.184,-0.1833,-0.1827,0,-0.3143,-0.3162,-0.3193,-0.324,-0.3272,-0.3304,-0.3394,-0.3452,-0.3486,-0.3583,-0.3597,-0.3608,-0.3596,-0.3438,-0.3301,-0.2973,-0.2495,-0.2712,-0.2531,-0.2434,-0.1471,-0.1327,-0.1137,-0.0891,-0.2453,-0.2448,-0.2443,0,-0.3155,-0.3165,-0.3201,-0.3202,-0.3263,-0.3254,-0.3323,-0.3313,-0.3355,-0.3427,-0.3349,-0.3415,-0.322,-0.319,-0.303,-0.2827,-0.297,-0.2555,-0.2492,-0.2289,-0.2251,-0.1641,-0.1468,-0.2747,-0.2745,-0.2743,-0.2742,0,-0.3117,-0.3149,-0.3174,-0.317,-0.3178,-0.3191,-0.32,-0.3197,-0.3213,-0.3214,-0.3243,-0.3191,-0.3182,-0.3066,-0.2919,-0.2832,-0.2863,-0.2728,-0.2486,-0.2474,-0.222,-0.2175,-0.1675,-0.274,-0.2739,-0.2739,-0.2738,0,-0.3075,-0.3087,-0.3119,-0.313,-0.3129,-0.315,-0.3147,-0.3141,-0.3124,-0.3084,-0.306,-0.2983,-0.2969,-0.2826,-0.2774,-0.2705,-0.263,-0.2557,-0.256,-0.2259,-0.2118,-0.2077,-0.2137,-0.1503,-0.2572,-0.257,-0.2568,0,-0.3023,-0.3054,-0.3033,-0.306,-0.3062,-0.3004,-0.3007,-0.298,-0.2929,-0.2915,-0.2829,-0.2787,-0.2662,-0.2621,-0.2585,-0.2471,-0.2499,-0.2421,-0.2338,-0.234,-0.2132,-0.223,-0.1987,-0.2123,-0.2542,-0.2545,-0.2547,0,-0.2973,-0.2948,-0.2949,-0.2941,-0.2905,-0.29,-0.2891,-0.2858,-0.2865,-0.2766,-0.2763,-0.2636,-0.2587,-0.2509,-0.2394,-0.2365,-0.2461,-0.2224,-0.2217,-0.234,-0.2475,-0.2227,-0.2222,-0.2317,-0.2319,-0.2321,-0.2526,0,-0.2896,-0.2893,-0.2905,-0.2864,-0.2857,-0.2858,-0.2783,-0.2761,-0.2682,-0.2627,-0.2567,-0.2437,-0.2331,-0.2283,-0.217,-0.2191,-0.2152,-0.2038,-0.196,-0.2051,-0.2128,-0.2146,-0.1885,-0.1881,-0.1878,-0.1875,0,0,-0.2835,-0.2819,-0.2758,-0.2765,-0.2743,-0.2658,-0.2669,-0.2626,-0.2514,-0.2485,-0.2404,-0.2227,-0.2114,-0.2065,-0.2063,-0.1991,-0.1969,-0.1927,-0.1991,-0.2004,-0.2016,-0.2096,-0.2116,-0.187,-0.1868,-0.1867,-0.1866,0,-0.2781,-0.274,-0.2751,-0.2719,-0.2663,-0.2613,-0.2619,-0.2529,-0.2478,-0.241,-0.2287,-0.2229,-0.2032,-0.1965,-0.1893,-0.1946,-0.1849,-0.1873,-0.1982,-0.1964,-0.1982,-0.1997,-0.208,-0.21,-0.1859,-0.1859,-0.1859,0,-0.2705,-0.2658,-0.2643,-0.2592,-0.2534,-0.2526,-0.2432,-0.2421,-0.2402,-0.2227,-0.2159,-0.2059,-0.1903,-0.1834,-0.1791,-0.1737,-0.1747,-0.1687,-0.1701,-0.1725,-0.1702,-0.1722,-0.174,-0.1515,-0.1515,-0.1514,0,0,-0.2668,-0.2655,-0.2563,-0.2566,-0.2545,-0.245,-0.2434,-0.238,-0.2289,-0.2253,-0.2127,-0.1995,-0.1901,-0.1828,-0.1733,-0.167,-0.1654,-0.1654,-0.167,-0.1684,-0.1717,-0.1698,-0.1716,-0.1513,-0.1513,-0.1513,0,0,-0.2634,-0.2534,-0.2477,-0.2485,-0.2431,-0.2334,-0.2345,-0.2291,-0.2212,-0.2189,-0.2021,-0.198,-0.191,-0.1802,-0.1808,-0.1694,-0.1616,-0.1612,-0.1779,-0.1797,-0.1812,-0.1879,-0.1669,0,0,0,0,0,-0.2506,-0.2548,-0.2498,-0.2484,-0.2391,-0.2359,-0.2348,-0.2264,-0.2215,-0.2232,-0.2104,-0.2006,-0.1765,-0.1767,-0.1735,-0.1747,-0.1501,-0.1503,-0.1505,-0.1705,-0.1726,-0.1743,0,0,0,0,0,0,-0.25,-0.2483,-0.2496,-0.24,-0.2379,-0.2356,-0.2254,-0.2232,-0.2211,-0.2197,-0.2035,-0.2001,-0.1881,-0.1774,-0.1747,-0.1761,-0.1678,-0.1502,-0.1504,-0.1505,-0.1712,-0.1729,-0.1743,0,0,0,0,0,-0.2495,-0.2481,-0.235,-0.2399,-0.2381,-0.2279,-0.2251,-0.2232,-0.2215,-0.2044,-0.2011,-0.2153,-0.1887,-0.1853,-0.1757,-0.1777,-0.1695,-0.1686,-0.1503,-0.1505,-0.1506,-0.172,0,0,0,0,0,0,-0.2491,-0.2467,-0.2344,-0.2336,-0.2374,-0.2279,-0.2259,-0.2233,-0.2059,-0.2031,-0.2151,-0.2141,-0.1891,-0.1863,-0.1838,-0.179,-0.171,-0.17,-0.1694,-0.1504,-0.1505,-0.1506,0,0,0,0,0,0,-0.2474,-0.2461,-0.234,-0.2313,-0.23,-0.2279,-0.2262,-0.2174,-0.2054,-0.2173,-0.2162,-0.2148,-0.1887,-0.1871,-0.1851,-0.1722,-0.172,-0.1711,-0.1705,-0.1701,-0.1505,-0.1506,0,0,0,0,0,0,-0.2468,-0.2456,-0.2314,-0.2305,-0.2294,-0.2198,-0.2195,-0.208,-0.2112,-0.2179,-0.2103,-0.2099,-0.1895,-0.1874,-0.1861,-0.1741,-0.1727,-0.172,-0.1714,-0.1709,-0.1707,0,0,0,0,0,0,0,-0.2462,-0.2553,-0.2392,-0.2299,-0.2289,-0.2262,-0.226,-0.2258,-0.2111,-0.2108,-0.2104,-0.2101,-0.1772,-0.1762,-0.1752,-0.1757,0,0,-0.1721,-0.1717,0,0,0,0,0,0,0,0,-0.2557,-0.2554,-0.2391,-0.239,-0.2388,-0.2262,-0.226,-0.2258,-0.211,-0.2108,-0.2105,-0.2102,-0.177,-0.1762,-0.1753,0,0,0,0,0,0,0,0,0,0,0,0,0,0,0,-0.2391,-0.239,0,-0.2262,-0.226,-0.2259,-0.211,-0.2108,-0.2105,-0.2103,-0.1767,-0.1761,-0.1754,0,0,0,0,0,0,0,0,0,0,0,0,0,0,0,0,0,0,0,0,0,0,0,0,0,0,0,0,0,0,0,0,0,0,0,0,0,0,0,0,0,0,0,0,0,0,0,0,0,0,0,0,0,0,0,0,0,0,0,0,0,0,0,0,0,0,0,0,0]}]],[[{"header":{"parameterUnit":"kt","parameterCategory":2,"dx":1,"dy":1,"la1":30.253999710083008,"la2":30.299108505249023,"lo1":-89.0895004272461,"lo2":-89.04439544677734,"nx":28,"ny":28,"refTime":"2022-10-31T21:00:00:Z","depth":"2","parameterNumber":2,"parameterNumberName":"U-component_of_CURRENTS"},"data":[-0.3731,-0.3513,-0.3456,-0.296,-0.2793,-0.2567,-0.2511,-0.249,-0.2539,-0.2389,-0.221,-0.2282,-0.1991,-0.1465,-0.1262,-0.0988,-0.1385,-0.0916,-0.1891,-0.2114,-0.2208,-0.2269,-0.181,0,0,0,0,0,-0.3911,-0.3872,-0.3661,-0.3372,-0.309,-0.3112,-0.2992,-0.2911,-0.2847,-0.2957,-0.2925,-0.2317,-0.2017,-0.2,-0.1563,-0.1426,-0.148,-0.1429,-0.152,-0.1619,-0.1709,-0.1351,-0.0725,-0.0723,-0.0721,-0.072,0,0,-0.4226,-0.414,-0.4042,-0.3744,-0.3534,-0.337,-0.3203,-0.3205,-0.3127,-0.3217,-0.3249,-0.31,-0.2979,-0.2617,-0.2513,-0.2411,-0.2653,-0.2542,-0.2585,-0.264,-0.232,-0.2291,-0.1953,-0.1959,-0.1964,-0.1968,-0.1972,0,-0.4396,-0.4432,-0.429,-0.4035,-0.3838,-0.3604,-0.3434,-0.342,-0.3451,-0.3492,-0.3524,-0.3492,-0.3529,-0.3225,-0.3233,-0.3185,-0.3432,-0.3253,-0.4129,-0.295,-0.2955,-0.3042,-0.3092,-0.2777,-0.2788,-0.2796,-0.2801,-0.2806,-0.4583,-0.4536,-0.4339,-0.4174,-0.4107,-0.3869,-0.3687,-0.3621,-0.3588,-0.3715,-0.3723,-0.3876,-0.3857,-0.399,-0.3843,-0.3889,-0.4146,-0.3519,-0.3231,-0.401,-0.4094,-0.4109,-0.4121,-0.2921,-0.2907,-0.2895,-0.2885,0,-0.4634,-0.4645,-0.4465,-0.4288,-0.4176,-0.3993,-0.3781,-0.3653,-0.373,-0.3707,-0.3736,-0.3857,-0.4005,-0.4162,-0.4304,-0.4228,-0.4258,-0.4218,-0.3889,-0.3885,-0.4175,-0.4176,-0.4031,-0.402,-0.4011,-0.4003,-0.3996,0,-0.4718,-0.4582,-0.4536,-0.4472,-0.4189,-0.4118,-0.3902,-0.3776,-0.3748,-0.3687,-0.3777,-0.3803,-0.3949,-0.4078,-0.4184,-0.4211,-0.4368,-0.4101,-0.4165,-0.3815,-0.3769,-0.4411,-0.4413,-0.4358,-0.4354,-0.4351,-0.4349,0,-0.4814,-0.4691,-0.4577,-0.4522,-0.4352,-0.4232,-0.4089,-0.3957,-0.3857,-0.3832,-0.3903,-0.3838,-0.3961,-0.3989,-0.4194,-0.4195,-0.4361,-0.4393,-0.42,-0.4198,-0.3798,-0.3753,-0.4345,-0.4345,-0.4344,-0.4343,-0.4342,0,-0.4933,-0.4879,-0.478,-0.4536,-0.4487,-0.4422,-0.4144,-0.4049,-0.3968,-0.399,-0.3951,-0.4004,-0.3964,-0.4046,-0.4134,-0.4133,-0.4243,-0.4333,-0.435,-0.3972,-0.4127,-0.4,-0.3857,-0.4718,-0.4718,-0.4718,-0.4718,0,-0.4957,-0.4929,-0.4947,-0.478,-0.4696,-0.4637,-0.4517,-0.4408,-0.4384,-0.4308,-0.4278,-0.4222,-0.427,-0.4277,-0.4227,-0.432,-0.4317,-0.4255,-0.4469,-0.4477,-0.4154,-0.4069,-0.3631,-0.3887,-0.4717,-0.4717,-0.4717,0,-0.5006,-0.5053,-0.5046,-0.4951,-0.4938,-0.4877,-0.478,-0.4644,-0.453,-0.4582,-0.4438,-0.435,-0.4392,-0.4319,-0.4328,-0.4286,-0.4347,-0.4389,-0.4387,-0.4541,-0.4461,-0.4128,-0.4101,-0.434,-0.4335,-0.4332,-0.4717,0,-0.496,-0.5004,-0.503,-0.5043,-0.5011,-0.4995,-0.4956,-0.4919,-0.4896,-0.4854,-0.4745,-0.4736,-0.4609,-0.4626,-0.46,-0.4453,-0.4599,-0.4565,-0.4516,-0.4496,-0.4696,-0.4697,-0.4686,-0.4686,-0.4686,-0.4685,0,0,-0.4915,-0.5001,-0.5107,-0.5122,-0.5063,-0.511,-0.505,-0.5039,-0.5015,-0.4925,-0.5014,-0.4851,-0.4799,-0.4599,-0.4598,-0.4637,-0.4722,-0.4569,-0.4541,-0.4526,-0.4511,-0.4694,-0.4695,-0.4685,-0.4685,-0.4685,-0.4685,0,-0.4899,-0.502,-0.5092,-0.5102,-0.5135,-0.5105,-0.5119,-0.5115,-0.5066,-0.504,-0.4957,-0.4902,-0.4857,-0.4722,-0.4657,-0.4654,-0.4669,-0.4696,-0.458,-0.4544,-0.4529,-0.4515,-0.4693,-0.4694,-0.4684,-0.4684,-0.4684,0,-0.4845,-0.4921,-0.4986,-0.5097,-0.5093,-0.5072,-0.5075,-0.5101,-0.5034,-0.5003,-0.4904,-0.4892,-0.4799,-0.4738,-0.471,-0.4695,-0.4641,-0.4638,-0.464,-0.4524,-0.448,-0.4466,-0.4452,-0.4611,-0.461,-0.461,0,0,-0.4818,-0.4933,-0.4987,-0.5092,-0.5104,-0.5081,-0.5087,-0.5068,-0.5037,-0.5015,-0.4948,-0.4872,-0.4798,-0.4757,-0.4706,-0.4667,-0.4661,-0.4628,-0.4631,-0.4634,-0.4523,-0.4479,-0.4466,-0.4609,-0.4609,-0.4609,0,0,-0.4776,-0.4891,-0.4906,-0.5045,-0.5062,-0.5042,-0.5053,-0.5029,-0.4988,-0.4965,-0.4868,-0.4845,-0.4795,-0.4758,-0.4754,-0.4656,-0.4646,-0.4645,-0.4656,-0.466,-0.4663,-0.4533,-0.465,0,0,0,0,0,-0.4783,-0.4891,-0.4906,-0.4933,-0.5024,-0.5058,-0.5055,-0.5011,-0.4967,-0.4984,-0.4912,-0.484,-0.4731,-0.4725,-0.4709,-0.466,-0.4592,-0.4595,-0.4598,-0.4604,-0.4609,-0.4613,0,0,0,0,0,0,-0.4793,-0.4832,-0.49,-0.4905,-0.4923,-0.5054,-0.4975,-0.4963,-0.4964,-0.4953,-0.4857,-0.4837,-0.4764,-0.4727,-0.4714,-0.4668,-0.4654,-0.4593,-0.4596,-0.4598,-0.4606,-0.4609,-0.4613,0,0,0,0,0,-0.4802,-0.4832,-0.5019,-0.4898,-0.4914,-0.4882,-0.4972,-0.4961,-0.4949,-0.4864,-0.4843,-0.4919,-0.4767,-0.4749,-0.4719,-0.4675,-0.4662,-0.4658,-0.4595,-0.4597,-0.4599,-0.4608,0,0,0,0,0,0,-0.4807,-0.478,-0.5018,-0.5016,-0.4878,-0.487,-0.4879,-0.496,-0.4855,-0.484,-0.492,-0.4913,-0.477,-0.4755,-0.4742,-0.4681,-0.4669,-0.4665,-0.4662,-0.4596,-0.4598,-0.4599,0,0,0,0,0,0,-0.4763,-0.4781,-0.5016,-0.4995,-0.499,-0.486,-0.4869,-0.483,-0.4851,-0.4912,-0.4906,-0.4918,-0.4773,-0.476,-0.4749,-0.469,-0.4675,-0.467,-0.4667,-0.4665,-0.4598,-0.4599,0,0,0,0,0,0,-0.4767,-0.4782,-0.4994,-0.4991,-0.4986,-0.4956,-0.4817,-0.4899,-0.489,-0.4915,-0.4883,-0.488,-0.4778,-0.4767,-0.4754,-0.47,-0.4692,-0.4675,-0.4672,-0.4669,-0.4668,0,0,0,0,0,0,0,-0.4771,-0.4716,-0.504,-0.4987,-0.4983,-0.5004,-0.5002,-0.5,-0.4889,-0.4886,-0.4884,-0.4882,-0.4701,-0.4696,-0.4691,-0.4709,0,0,-0.4675,-0.4673,0,0,0,0,0,0,0,0,-0.4706,-0.4714,-0.504,-0.504,-0.5041,-0.5003,-0.5002,-0.5001,-0.4888,-0.4886,-0.4884,-0.4883,-0.4699,-0.4695,-0.4691,0,0,0,0,0,0,0,0,0,0,0,0,0,0,0,-0.504,-0.504,0,-0.5003,-0.5002,-0.5001,-0.4888,-0.4886,-0.4885,-0.4883,-0.4698,-0.4695,-0.4692,0,0,0,0,0,0,0,0,0,0,0,0,0,0,0,0,0,0,0,0,0,0,0,0,0,0,0,0,0,0,0,0,0,0,0,0,0,0,0,0,0,0,0,0,0,0,0,0,0,0,0,0,0,0,0,0,0,0,0,0,0,0,0,0,0,0,0,0,0]}],[{"header":{"parameterUnit":"kt","parameterCategory":2,"dx":1,"dy":1,"la1":30.253999710083008,"la2":30.299108505249023,"lo1":-89.0895004272461,"lo2":-89.04439544677734,"nx":28,"ny":28,"refTime":"2022-10-31T21:00:00:Z","depth":"2","parameterNumber":3,"parameterNumberName":"V-component_of_CURRENTS"},"data":[-0.0765,-0.0875,-0.089,-0.1012,-0.1084,-0.1199,-0.1269,-0.1186,-0.0889,-0.0433,0.0141,0.0838,0.1371,0.1604,0.1642,0.1653,0.1585,0.1578,0.1887,0.1667,0.1663,0.178,0.164,0,0,0,0,0,-0.0681,-0.0764,-0.0844,-0.0929,-0.099,-0.1035,-0.1147,-0.1128,-0.1118,-0.0721,-0.0487,0.0321,0.0913,0.1387,0.1735,0.1921,0.1792,0.1858,0.1683,0.1686,0.1687,0.159,0.1668,0.1666,0.1665,0.1664,0,0,-0.0551,-0.0626,-0.0691,-0.0768,-0.0842,-0.0947,-0.1029,-0.1044,-0.1073,-0.0891,-0.0731,-0.0192,0.0331,0.1413,0.1569,0.177,0.1892,0.1983,0.1975,0.1969,0.1896,0.1904,0.2049,0.2051,0.2052,0.2053,0.2054,0,-0.0419,-0.0455,-0.0518,-0.0599,-0.0672,-0.0765,-0.0834,-0.0884,-0.0857,-0.0811,-0.0695,-0.0496,0.014,0.071,0.1367,0.1612,0.1755,0.1859,0.1876,0.1661,0.1664,0.1764,0.1763,0.1772,0.1771,0.1771,0.1771,0.1771,-0.0245,-0.0322,-0.0387,-0.0438,-0.0454,-0.0554,-0.0625,-0.0616,-0.0645,-0.0549,-0.054,-0.0241,0.0009,0.0674,0.1158,0.166,0.1648,0.1833,0.1831,0.1862,0.1969,0.1963,0.1958,0.1769,0.1769,0.177,0.177,0,-0.0146,-0.0146,-0.025,-0.0288,-0.031,-0.0404,-0.0445,-0.0516,-0.0475,-0.0466,-0.0442,-0.0187,0.0158,0.0531,0.0964,0.1236,0.1575,0.1693,0.1579,0.1671,0.1939,0.1938,0.1997,0.2001,0.2004,0.2007,0.2009,0,0.0034,-0.0056,-0.0048,-0.0092,-0.0232,-0.0184,-0.0312,-0.0303,-0.0276,-0.0297,-0.0107,-0.0034,0.0356,0.0604,0.0916,0.1316,0.1256,0.1604,0.1718,0.1609,0.1614,0.1674,0.1689,0.1525,0.1523,0.1521,0.152,0,0.0188,0.015,0.0045,0.005,0.0051,-0.0023,-0.003,-0.0019,-0.0035,0.0039,0.0077,0.0225,0.0394,0.0601,0.1013,0.1046,0.1342,0.1446,0.1679,0.1694,0.1692,0.1709,0.1518,0.1517,0.1517,0.1516,0.1516,0,0.0366,0.0344,0.0241,0.0206,0.0191,0.0175,0.0113,0.0126,0.0177,0.0247,0.0318,0.0501,0.0615,0.0783,0.1062,0.1043,0.1245,0.1437,0.1451,0.1606,0.1807,0.1818,0.1747,0.1731,0.1731,0.1731,0.1731,0,0.0514,0.0438,0.0491,0.042,0.0395,0.0484,0.0454,0.0485,0.0577,0.0604,0.0752,0.085,0.1016,0.1091,0.1132,0.1424,0.1429,0.1386,0.1716,0.1725,0.1746,0.1674,0.156,0.1746,0.173,0.173,0.173,0,0.0639,0.0667,0.0652,0.0635,0.0726,0.0742,0.0726,0.075,0.0697,0.0867,0.0838,0.1051,0.1143,0.1242,0.1412,0.1442,0.145,0.1612,0.162,0.1641,0.1583,0.167,0.1681,0.1513,0.151,0.1508,0.173,0,0.0759,0.0775,0.0747,0.0798,0.0837,0.0831,0.0953,0.0966,0.1038,0.1123,0.1191,0.142,0.1535,0.1614,0.1756,0.1718,0.1835,0.1907,0.1917,0.1844,0.1973,0.1972,0.2053,0.2058,0.2061,0.2065,0,0,0.0871,0.0886,0.0994,0.0989,0.1006,0.1144,0.1117,0.1195,0.1344,0.1332,0.1438,0.1677,0.1817,0.1855,0.1877,0.1993,0.2073,0.194,0.192,0.1903,0.1888,0.1999,0.1994,0.2072,0.2073,0.2075,0.2076,0,0.092,0.1014,0.099,0.1059,0.1134,0.1221,0.1204,0.133,0.1361,0.1466,0.1589,0.1672,0.1894,0.1968,0.2048,0.2046,0.2143,0.2122,0.1918,0.1953,0.1931,0.1912,0.2016,0.2009,0.2085,0.2085,0.2084,0,0.1019,0.1092,0.1113,0.1246,0.1306,0.1336,0.1429,0.1448,0.1464,0.1651,0.1681,0.183,0.2012,0.2096,0.2135,0.2153,0.2194,0.2209,0.2195,0.2137,0.2177,0.2153,0.2132,0.2384,0.2384,0.2383,0,0,0.1056,0.1083,0.1241,0.1275,0.13,0.1418,0.145,0.1504,0.1605,0.1635,0.1742,0.1866,0.1993,0.2029,0.2174,0.2232,0.2295,0.223,0.2216,0.2203,0.2139,0.2176,0.2155,0.2381,0.2381,0.2381,0,0,0.1074,0.1214,0.1279,0.1332,0.1426,0.157,0.1553,0.1608,0.1696,0.1672,0.182,0.1854,0.1933,0.2037,0.1998,0.2135,0.2216,0.2226,0.1999,0.1985,0.1972,0.1853,0.2073,0,0,0,0,0,0.1198,0.1201,0.1259,0.1287,0.1469,0.1562,0.1585,0.1652,0.1637,0.1639,0.1748,0.1788,0.2066,0.2034,0.2067,0.2015,0.2356,0.2361,0.2365,0.2095,0.2078,0.2064,0,0,0,0,0,0,0.121,0.1246,0.1258,0.1406,0.1446,0.1563,0.1612,0.1633,0.1638,0.164,0.1774,0.1796,0.1909,0.2023,0.2051,0.1998,0.2063,0.2358,0.2362,0.2365,0.2089,0.2075,0.2063,0,0,0,0,0,0.1219,0.1248,0.1518,0.1406,0.1441,0.1541,0.161,0.1627,0.1625,0.179,0.1811,0.1658,0.1908,0.1936,0.204,0.1981,0.2044,0.2054,0.2361,0.2363,0.2366,0.2083,0,0,0,0,0,0,0.1226,0.1281,0.1527,0.154,0.1376,0.1534,0.1561,0.1622,0.1776,0.1796,0.1688,0.1689,0.1909,0.1931,0.1952,0.1968,0.2029,0.2039,0.2046,0.2363,0.2365,0.2367,0,0,0,0,0,0,0.1265,0.1292,0.1534,0.1492,0.1502,0.1527,0.1551,0.1665,0.1777,0.1668,0.1672,0.1687,0.1867,0.1927,0.1944,0.2121,0.2017,0.2027,0.2034,0.2038,0.2365,0.2367,0,0,0,0,0,0,0.1278,0.1301,0.149,0.1497,0.1506,0.1665,0.163,0.181,0.1743,0.1661,0.1737,0.1734,0.1863,0.1882,0.1938,0.2108,0.2118,0.2017,0.2024,0.2029,0.2032,0,0,0,0,0,0,0,0.1288,0.1114,0.1439,0.1501,0.1509,0.166,0.1664,0.1669,0.1742,0.174,0.1738,0.1736,0.196,0.1971,0.1982,0.2097,0,0,0.2016,0.2021,0,0,0,0,0,0,0,0,0.1106,0.1112,0.1439,0.1441,0.1443,0.166,0.1664,0.1668,0.1742,0.174,0.1738,0.1736,0.1963,0.1971,0.198,0,0,0,0,0,0,0,0,0,0,0,0,0,0,0,0.1439,0.1441,0,0.1661,0.1664,0.1667,0.1742,0.174,0.1739,0.1737,0.1965,0.1972,0.198,0,0,0,0,0,0,0,0,0,0,0,0,0,0,0,0,0,0,0,0,0,0,0,0,0,0,0,0,0,0,0,0,0,0,0,0,0,0,0,0,0,0,0,0,0,0,0,0,0,0,0,0,0,0,0,0,0,0,0,0,0,0,0,0,0,0,0,0,0]}]],[[{"header":{"parameterUnit":"kt","parameterCategory":2,"dx":1,"dy":1,"la1":30.253999710083008,"la2":30.299108505249023,"lo1":-89.0895004272461,"lo2":-89.04439544677734,"nx":28,"ny":28,"refTime":"2022-10-31T21:00:00:Z","depth":"4","parameterNumber":2,"parameterNumberName":"U-component_of_CURRENTS"},"data":[-0.086,-0.0886,-0.0941,-0.1038,-0.1131,-0.1285,-0.1354,-0.143,-0.1345,-0.143,-0.1441,-0.152,-0.1588,-0.1615,-0.1645,-0.1684,-0.1753,-0.1993,-0.1989,-0.2191,-0.2212,-0.2231,-0.2185,0,0,0,0,0,-0.093,-0.0914,-0.1026,-0.1204,-0.1354,-0.1469,-0.1594,-0.1679,-0.1779,-0.1595,-0.1679,-0.1632,-0.1648,-0.1711,-0.1695,-0.1932,-0.209,-0.1912,-0.2076,-0.2204,-0.2227,-0.2175,0,0,0,0,0,0,-0.1046,-0.1058,-0.1187,-0.1344,-0.1508,-0.1593,-0.1703,-0.1708,-0.1767,-0.1849,-0.1761,-0.1831,-0.1929,-0.1952,-0.1989,-0.2031,-0.2009,-0.1968,-0.2002,-0.2027,-0.1946,-0.1855,-0.1592,0,0,0,0,0,-0.1162,-0.1256,-0.133,-0.1523,-0.1667,-0.1799,-0.1935,-0.1937,-0.2086,-0.2216,-0.2071,-0.2075,-0.2058,-0.2118,-0.2184,-0.2197,-0.2488,-0.24,-0.2412,-0.2409,-0.2376,-0.2369,-0.2382,-0.2316,-0.2318,-0.232,-0.2321,0,-0.1319,-0.1337,-0.1592,-0.168,-0.1795,-0.1963,-0.2056,-0.2272,-0.2304,-0.2395,-0.2352,-0.2409,-0.2447,-0.232,-0.2469,-0.2501,-0.2474,-0.2461,-0.2458,-0.2414,-0.2399,-0.2407,-0.2414,-0.234,-0.2339,-0.2337,-0.2336,0,-0.1385,-0.1508,-0.1621,-0.185,-0.1934,-0.2036,-0.2275,-0.2344,-0.2486,-0.2516,-0.2543,-0.2647,-0.2634,-0.274,-0.2752,-0.2701,-0.2659,-0.2592,-0.2787,-0.2778,-0.2448,-0.2447,-0.2371,-0.2364,-0.2358,-0.2354,-0.2349,0,-0.1543,-0.161,-0.181,-0.1846,-0.1989,-0.2147,-0.2297,-0.2431,-0.2564,-0.2593,-0.2739,-0.2721,-0.2844,-0.2854,-0.2854,-0.2743,-0.2849,-0.2635,-0.2611,-0.2811,-0.2809,-0.2827,-0.2827,-0.2832,-0.2832,-0.2833,-0.2833,0,-0.1612,-0.1761,-0.1843,-0.1889,-0.2079,-0.219,-0.2314,-0.2476,-0.2542,-0.268,-0.2718,-0.2828,-0.2832,-0.286,-0.2835,-0.2847,-0.2835,-0.284,-0.2648,-0.2635,-0.2828,-0.2828,-0.2833,-0.2833,-0.2833,-0.2833,-0.2833,0,-0.171,-0.1773,-0.1866,-0.2034,-0.2083,-0.2174,-0.2367,-0.244,-0.2576,-0.2634,-0.2733,-0.2773,-0.2829,-0.2793,-0.283,-0.2841,-0.2815,-0.2799,-0.2798,-0.2645,-0.2615,-0.273,-0.2766,-0.2766,-0.2766,-0.2766,-0.2765,0,-0.1728,-0.181,-0.1899,-0.2001,-0.2054,-0.216,-0.2261,-0.2349,-0.2432,-0.2542,-0.2582,-0.2681,-0.2688,-0.2737,-0.2754,-0.2769,-0.2769,-0.2765,-0.2796,-0.2796,-0.2594,-0.2585,-0.279,-0.2762,-0.2763,-0.2763,-0.2763,0,-0.173,-0.1854,-0.1865,-0.1929,-0.2027,-0.2067,-0.2168,-0.2267,-0.2349,-0.2418,-0.2533,-0.2625,-0.2657,-0.2717,-0.2757,-0.277,-0.2759,-0.2782,-0.2783,-0.273,-0.2788,-0.2604,-0.2588,-0.2786,-0.2787,-0.2788,-0.2761,0,-0.179,-0.184,-0.1862,-0.1963,-0.2015,-0.2025,-0.2091,-0.2161,-0.2233,-0.2279,-0.2408,-0.246,-0.2603,-0.2633,-0.266,-0.2739,-0.2746,-0.2755,-0.2744,-0.2782,-0.2767,-0.2769,-0.2757,-0.2758,-0.2758,-0.2759,0,0,-0.1777,-0.1828,-0.1879,-0.1925,-0.1963,-0.1988,-0.2035,-0.207,-0.215,-0.2211,-0.2215,-0.2452,-0.2502,-0.2624,-0.2637,-0.268,-0.2698,-0.2726,-0.2778,-0.278,-0.2782,-0.2769,-0.277,-0.2759,-0.276,-0.276,-0.276,0,-0.179,-0.1845,-0.1881,-0.1909,-0.1936,-0.1971,-0.1987,-0.2045,-0.2081,-0.2178,-0.2236,-0.2315,-0.2496,-0.2539,-0.2592,-0.2677,-0.2705,-0.2741,-0.2767,-0.2781,-0.2782,-0.2784,-0.277,-0.2771,-0.2761,-0.2761,-0.2761,0,-0.1808,-0.1843,-0.1858,-0.1905,-0.1939,-0.1984,-0.1989,-0.1996,-0.2035,-0.2101,-0.2237,-0.23,-0.2398,-0.2495,-0.2554,-0.256,-0.2701,-0.2696,-0.2697,-0.2705,-0.2719,-0.2722,-0.2724,-0.2682,-0.2681,-0.2681,0,0,-0.1827,-0.1862,-0.1892,-0.1907,-0.1933,-0.1975,-0.1993,-0.1992,-0.2048,-0.2084,-0.2185,-0.2287,-0.2367,-0.2432,-0.2504,-0.262,-0.2623,-0.2681,-0.2685,-0.2688,-0.2696,-0.2712,-0.2716,-0.2678,-0.2678,-0.2678,0,0,-0.1816,-0.1866,-0.1891,-0.192,-0.1932,-0.1954,-0.1976,-0.2009,-0.2089,-0.21,-0.2189,-0.2213,-0.2318,-0.2383,-0.2333,-0.2519,-0.2511,-0.2523,-0.2464,-0.247,-0.2474,-0.2456,-0.235,0,0,0,0,0,-0.1842,-0.1859,-0.1882,-0.1889,-0.1944,-0.1949,-0.1957,-0.1981,-0.2028,-0.204,-0.2124,-0.2157,-0.2361,-0.2318,-0.2346,-0.2402,-0.2639,-0.2646,-0.2653,-0.2603,-0.2609,-0.2613,0,0,0,0,0,0,-0.1845,-0.1855,-0.188,-0.1903,-0.1914,-0.1951,-0.1969,-0.1978,-0.2024,-0.2029,-0.2141,-0.2159,-0.2191,-0.2308,-0.2333,-0.2385,-0.2342,-0.2642,-0.2648,-0.2653,-0.2605,-0.2609,-0.2613,0,0,0,0,0,-0.1847,-0.1854,-0.1939,-0.1903,-0.1913,-0.1941,-0.1969,-0.1977,-0.2036,-0.2088,-0.2107,-0.2051,-0.219,-0.2216,-0.2323,-0.2372,-0.2326,-0.2335,-0.2646,-0.265,-0.2654,-0.2607,0,0,0,0,0,0,-0.1848,-0.1879,-0.1941,-0.1945,-0.1893,-0.194,-0.195,-0.1975,-0.2097,-0.2111,-0.1998,-0.1999,-0.2189,-0.221,-0.223,-0.2364,-0.2312,-0.2321,-0.2327,-0.2649,-0.2653,-0.2656,0,0,0,0,0,0,-0.1874,-0.1883,-0.1944,-0.193,-0.1933,-0.1939,-0.1948,-0.2043,-0.2102,-0.2004,-0.2006,-0.1997,-0.2178,-0.2206,-0.2221,-0.2367,-0.2302,-0.2311,-0.2317,-0.232,-0.2652,-0.2655,0,0,0,0,0,0,-0.1878,-0.1885,-0.1931,-0.1932,-0.1935,-0.1982,-0.2028,-0.2104,-0.2026,-0.2002,-0.2025,-0.2024,-0.2175,-0.2191,-0.2215,-0.2354,-0.2364,-0.2302,-0.2308,-0.2312,-0.2315,0,0,0,0,0,0,0,-0.1881,-0.1827,-0.1909,-0.1934,-0.1936,-0.1971,-0.1973,-0.1976,-0.2026,-0.2025,-0.2025,-0.2024,-0.2252,-0.2262,-0.2271,-0.2343,0,0,-0.2301,-0.2305,0,0,0,0,0,0,0,0,-0.1825,-0.1827,-0.1909,-0.1909,-0.1909,-0.1972,-0.1973,-0.1975,-0.2026,-0.2025,-0.2025,-0.2024,-0.2255,-0.2262,-0.227,0,0,0,0,0,0,0,0,0,0,0,0,0,0,0,-0.1909,-0.1909,0,-0.1972,-0.1973,-0.1975,-0.2026,-0.2025,-0.2025,-0.2025,-0.2257,-0.2263,-0.227,0,0,0,0,0,0,0,0,0,0,0,0,0,0,0,0,0,0,0,0,0,0,0,0,0,0,0,0,0,0,0,0,0,0,0,0,0,0,0,0,0,0,0,0,0,0,0,0,0,0,0,0,0,0,0,0,0,0,0,0,0,0,0,0,0,0,0,0,0]}],[{"header":{"parameterUnit":"kt","parameterCategory":2,"dx":1,"dy":1,"la1":30.253999710083008,"la2":30.299108505249023,"lo1":-89.0895004272461,"lo2":-89.04439544677734,"nx":28,"ny":28,"refTime":"2022-10-31T21:00:00:Z","depth":"4","parameterNumber":3,"parameterNumberName":"V-component_of_CURRENTS"},"data":[-0.023,-0.0329,-0.0419,-0.0513,-0.0571,-0.0648,-0.0656,-0.0617,-0.0512,-0.0404,-0.0146,-0.0048,0.0395,0.03,0.0812,0.0877,0.0938,0.1335,0.1335,0.1464,0.1469,0.1474,0.1206,0,0,0,0,0,-0.024,-0.0327,-0.0428,-0.0532,-0.0617,-0.0654,-0.0682,-0.0684,-0.0616,-0.0435,-0.0367,-0.0027,0.0388,0.0566,0.0813,0.0854,0.1217,0.1129,0.1225,0.1467,0.1473,0.121,0,0,0,0,0,0,-0.0277,-0.0338,-0.0442,-0.0531,-0.0615,-0.0652,-0.0674,-0.0612,-0.0579,-0.04,-0.0304,0.0055,0.0271,0.0622,0.0928,0.118,0.1212,0.1218,0.1237,0.1245,0.1001,0.0818,0.1004,0,0,0,0,0,-0.03,-0.0348,-0.0421,-0.0532,-0.0589,-0.0651,-0.0675,-0.0663,-0.059,-0.0543,-0.0294,-0.0054,0.0299,0.0659,0.098,0.1279,0.139,0.1486,0.149,0.1358,0.1253,0.125,0.1224,0.1496,0.1497,0.1498,0.1498,0,-0.0301,-0.0353,-0.0466,-0.0515,-0.0552,-0.0605,-0.0632,-0.0612,-0.0574,-0.0412,-0.0352,-0.0069,0.0126,0.0653,0.0922,0.136,0.1382,0.1501,0.1359,0.126,0.1262,0.1232,0.1203,0.1503,0.1502,0.1502,0.1502,0,-0.0299,-0.0364,-0.0435,-0.051,-0.0535,-0.0565,-0.0597,-0.0568,-0.0497,-0.0392,-0.0355,-0.0125,0.0196,0.0501,0.0918,0.1018,0.1305,0.1388,0.1299,0.1313,0.123,0.1199,0.1511,0.1509,0.1508,0.1506,0.1505,0,-0.0306,-0.0346,-0.0446,-0.048,-0.0525,-0.0543,-0.053,-0.048,-0.0396,-0.0324,-0.0179,-0.0063,0.0233,0.0481,0.0701,0.098,0.1094,0.1105,0.1138,0.1056,0.1028,0.1085,0.1057,0.1302,0.1299,0.1297,0.1294,0,-0.0295,-0.0372,-0.0438,-0.0458,-0.0515,-0.0506,-0.051,-0.0421,-0.0395,-0.0233,-0.0196,0.0069,0.0167,0.0425,0.0642,0.0597,0.1021,0.0988,0.1053,0.1045,0.1059,0.1035,0.1291,0.1291,0.129,0.1289,0.1288,0,-0.0298,-0.0361,-0.043,-0.0482,-0.0479,-0.0506,-0.0448,-0.0446,-0.0308,-0.027,-0.0111,-0.0038,0.0176,0.0152,0.0521,0.04,0.0563,0.0676,0.0692,0.058,0.0531,0.0691,0.0845,0.084,0.0835,0.0831,0.0827,0,-0.0277,-0.0363,-0.0385,-0.044,-0.0464,-0.0454,-0.0438,-0.042,-0.0376,-0.0295,-0.0163,-0.0086,-0.0048,-0.0004,0.0147,0.0284,0.0452,0.0269,0.0597,0.0607,0.0493,0.0612,0.0411,0.0762,0.077,0.0776,0.0781,0,-0.0254,-0.0339,-0.0341,-0.0368,-0.0406,-0.0442,-0.0422,-0.0393,-0.0346,-0.0339,-0.0242,-0.0142,-0.0085,-0.003,0.0039,0.0166,0.036,0.0169,0.0176,0.0324,0.0692,0.0551,0.0576,0.0382,0.0388,0.0392,0.0736,0,-0.0264,-0.0302,-0.0315,-0.0355,-0.038,-0.0423,-0.0429,-0.0428,-0.0429,-0.0413,-0.0314,-0.0258,-0.0154,-0.0134,-0.0111,0.0059,0.0078,0.0065,0.0096,0.0153,0.0289,0.0324,-0.0097,-0.0097,-0.0098,-0.0098,0,0,-0.0203,-0.0262,-0.0284,-0.0314,-0.0331,-0.036,-0.0389,-0.0391,-0.0425,-0.0382,-0.0418,-0.0277,-0.0245,-0.0091,-0.0093,-0.0097,-0.001,-0.0071,0.0089,0.0109,0.0128,0.0263,0.0297,-0.0098,-0.0099,-0.0099,-0.0099,0,-0.0206,-0.0224,-0.0261,-0.0288,-0.0343,-0.0357,-0.0369,-0.0405,-0.0397,-0.0413,-0.0353,-0.0288,-0.0265,-0.0177,-0.0133,-0.011,-0.0024,-0.0117,-0.0065,0.0081,0.0101,0.012,0.0255,0.0286,-0.01,-0.01,-0.01,0,-0.0164,-0.0204,-0.0231,-0.0289,-0.0302,-0.0326,-0.0322,-0.0374,-0.0388,-0.0347,-0.0326,-0.029,-0.0232,-0.0192,-0.0172,-0.0165,-0.0014,-0.0116,-0.0115,-0.009,0.0062,0.0083,0.0102,-0.0134,-0.0134,-0.0134,0,0,-0.0154,-0.02,-0.0242,-0.029,-0.0291,-0.0316,-0.0333,-0.0364,-0.0364,-0.0357,-0.0325,-0.0285,-0.0237,-0.0207,-0.0188,-0.0148,-0.0066,-0.0119,-0.0117,-0.0116,-0.0091,0.0059,0.0079,-0.0134,-0.0134,-0.0134,0,0,-0.015,-0.0209,-0.022,-0.0263,-0.0307,-0.0341,-0.0348,-0.0357,-0.0342,-0.0338,-0.0286,-0.0276,-0.0241,-0.0223,-0.0229,-0.0161,-0.017,-0.0168,-0.0156,-0.0154,-0.0153,-0.0127,-0.0195,0,0,0,0,0,-0.018,-0.0206,-0.0216,-0.0229,-0.0288,-0.0342,-0.0347,-0.0356,-0.0331,-0.0348,-0.031,-0.0282,-0.022,-0.0224,-0.0215,-0.0177,-0.0134,-0.0134,-0.0134,-0.0111,-0.0109,-0.0108,0,0,0,0,0,0,-0.0185,-0.0201,-0.0215,-0.0253,-0.0267,-0.034,-0.0315,-0.0317,-0.0331,-0.0329,-0.029,-0.0281,-0.0257,-0.0226,-0.0218,-0.0183,-0.0198,-0.0134,-0.0134,-0.0134,-0.0111,-0.0109,-0.0108,0,0,0,0,0,-0.019,-0.0203,-0.0298,-0.0252,-0.0264,-0.0288,-0.0313,-0.0315,-0.0316,-0.0294,-0.0286,-0.0323,-0.0258,-0.0248,-0.0221,-0.0186,-0.0203,-0.02,-0.0134,-0.0134,-0.0134,-0.011,0,0,0,0,0,0,-0.0193,-0.0189,-0.03,-0.0303,-0.0244,-0.0284,-0.0291,-0.0313,-0.0277,-0.0274,-0.0324,-0.0323,-0.0259,-0.0251,-0.0244,-0.0189,-0.0207,-0.0204,-0.0202,-0.0134,-0.0134,-0.0134,0,0,0,0,0,0,-0.0183,-0.0192,-0.0301,-0.0291,-0.0293,-0.028,-0.0286,-0.026,-0.0274,-0.0306,-0.0307,-0.0323,-0.0249,-0.0253,-0.0247,-0.0207,-0.021,-0.0208,-0.0206,-0.0204,-0.0134,-0.0134,0,0,0,0,0,0,-0.0187,-0.0195,-0.029,-0.0291,-0.0293,-0.033,-0.0252,-0.0294,-0.0323,-0.0305,-0.0321,-0.032,-0.0251,-0.0246,-0.025,-0.0213,-0.0209,-0.021,-0.0208,-0.0207,-0.0206,0,0,0,0,0,0,0,-0.019,-0.0139,-0.0286,-0.0292,-0.0293,-0.034,-0.034,-0.034,-0.0323,-0.0322,-0.0322,-0.0321,-0.0226,-0.0223,-0.022,-0.0217,0,0,-0.0211,-0.0209,0,0,0,0,0,0,0,0,-0.0135,-0.0138,-0.0287,-0.0288,-0.0289,-0.034,-0.034,-0.034,-0.0323,-0.0322,-0.0322,-0.0321,-0.0225,-0.0223,-0.022,0,0,0,0,0,0,0,0,0,0,0,0,0,0,0,-0.0287,-0.0288,0,-0.034,-0.034,-0.034,-0.0323,-0.0322,-0.0322,-0.0321,-0.0225,-0.0223,-0.0221,0,0,0,0,0,0,0,0,0,0,0,0,0,0,0,0,0,0,0,0,0,0,0,0,0,0,0,0,0,0,0,0,0,0,0,0,0,0,0,0,0,0,0,0,0,0,0,0,0,0,0,0,0,0,0,0,0,0,0,0,0,0,0,0,0,0,0,0,0]}]]]